Location: Waco, TX
(31.5480°N, 97.1670°W)
Time: 21:12:52
(UTC-05:00)

ISS - Visible Passes

Search period start: 23 October 2017 00:00
Search period end: 02 November 2017 00:00
Orbit: 400 x 408 km, 51.6° (Epoch: 24 October)

Date Brightness Start Highest point End Pass type
(mag) Time Alt. Az. Time Alt. Az. Time Alt. Az.
25 Oct -0.4 07:10:57 10° SSE 07:12:16 12° SE 07:13:35 10° ESE visible
27 Oct -2.0 07:00:45 10° SSW 07:03:44 34° SE 07:06:43 10° ENE visible
28 Oct -0.8 06:09:27 10° SSE 06:11:29 16° SE 06:13:32 10° E visible
29 Oct -3.9 06:52:03 10° SW 06:55:17 71° NW 06:58:31 10° NE visible
30 Oct -3.0 06:02:45 46° SE 06:02:55 46° SE 06:06:03 10° ENE visible
31 Oct -2.6 06:46:07 22° WNW 06:46:56 25° NW 06:49:42 10° NNE visible
01 Nov -1.5 05:56:31 19° NNE 05:56:31 19° NNE 05:57:36 10° NE visible
